This is the latest recevied weather packets stored in our database for station/object KN6ZYR. If no packets are shown the sender has not sent any weather packets the latest 10 day(s).
| Time | Temp. | Humidity | Pressure | Rain* | Wind** | Luminosity | Snow |
|---|---|---|---|---|---|---|---|
| 1778103122 | 26.67° C | 19% | 1022.5 hPa | 0 mm | - | 703 W/m² | - |
| 1778102819 | 26.67° C | 20% | 1022.4 hPa | 0 mm | - | 711 W/m² | - |
| 1778102514 | 26.67° C | 20% | 1022.6 hPa | 0 mm | - | 719 W/m² | - |
| 1778102210 | 26.11° C | 20% | 1022.7 hPa | 0 mm | - | 727 W/m² | - |
| 1778101907 | 26.11° C | 20% | 1022.6 hPa | 0 mm | - | 736 W/m² | - |
| 1778101604 | 25.56° C | 21% | 1022.5 hPa | 0 mm | - | 745 W/m² | - |
| 1778101300 | 26.11° C | 21% | 1022.5 hPa | 0 mm | - | 753 W/m² | - |
| 1778100998 | 26.11° C | 21% | 1022.7 hPa | 0 mm | - | 761 W/m² | - |
| 1778100692 | 26.11° C | 22% | 1022.7 hPa | 0 mm | - | 768 W/m² | - |
| 1778100391 | 25.56° C | 20% | 1022.5 hPa | 0 mm | - | 772 W/m² | - |
| 1778100087 | 25.56° C | 22% | 1022.6 hPa | 0 mm | - | 777 W/m² | - |
| 1778099785 | 25.56° C | 21% | 1022.9 hPa | 0 mm | - | 781 W/m² | - |
| 1778099481 | 25.56° C | 21% | 1023 hPa | 0 mm | - | 785 W/m² | - |
| 1778099180 | 25.56° C | 22% | 1022.9 hPa | 0 mm | - | 790 W/m² | - |
| 1778098876 | 25.56° C | 21% | 1022.7 hPa | 0 mm | - | 794 W/m² | - |
| 1778098573 | 25° C | 22% | 1023.1 hPa | 0 mm | - | 796 W/m² | - |
| 1778098269 | 25.56° C | 22% | 1022.9 hPa | 0 mm | - | 798 W/m² | - |
| 1778097966 | 26.11° C | 22% | 1023.2 hPa | 0 mm | - | 800 W/m² | - |
| 1778097663 | 25.56° C | 21% | 1023.1 hPa | 0 mm | - | 803 W/m² | - |
| 1778097359 | 25° C | 24% | 1023.2 hPa | 0 mm | - | 804 W/m² | - |
| 1778097055 | 25.56° C | 22% | 1022.9 hPa | 0 mm | - | 806 W/m² | - |
| 1778096753 | 25.56° C | 22% | 1023.1 hPa | 0 mm | - | 809 W/m² | - |
| 1778096449 | 25° C | 23% | 1023.1 hPa | 0 mm | - | 809 W/m² | - |
| 1778096147 | 25.56° C | 22% | 1022.9 hPa | 0 mm | - | 809 W/m² | - |
| 1778095845 | 25.56° C | 21% | 1023.1 hPa | 0 mm | - | 812 W/m² | - |
* Rain latest hour (hover to see other rain measurements)
** Current wind speed in m/s (hover to see current wind gust speed)